Regional Weather Roundup
Issued by NWS Midland/Odessa, TX

Skip options and go directly to product.
Home | Oldest Version | Previous Version | Current Version | All | Graphics & Text | Save Text | Print | Product List | Glossary On

Skip product version selection by date and time.   
712
ASUS44 KMAF 292210
RWRMAF
MIDLAND AREA WEATHER ROUNDUP
NATIONAL WEATHER SERVICE MIDLAND TX
500 PM CDT SUN MAR 29 2015

...IN SOUTHWEST TEXAS AND SOUTHEAST NEW MEXICO...

CITY           SKY/WX    TMP DP  RH WIND       PRES   REMARKS
ALPINE         SUNNY     85  18   8 E9        30.18F
ANDREWS        FAIR      87  32  14 NE12G17   30.06S
ARTESIA        SUNNY     86  27  11 NE9       30.08S
BIG SPRING     SUNNY     94  34  12 N15G22    30.02S
CARLSBAD       SUNNY     89  21   8 NE10      30.04F
DRYDEN           N/A     92  43  18 E13       29.97F
FORT STOCKTON  SUNNY     89  21   8 VRB3      30.04F
GUAD PASS      MOSUNNY   83  14   7 SW15G25   30.19F
HOBBS          SUNNY     84  27  12 N8G20     30.10F
MARFA          SUNNY     82  21  10 NW15G21   30.17F
MIDLAND AIRPK  SUNNY     89  29  11 N6        30.02F
MIDLAND INTL   SUNNY     89  33  13 NW7G16    30.02F
ODESSA         SUNNY     90  27  10 N8        30.03F
PECOS          SUNNY     90  27  10 W9        30.00F
PRESIDIO       FAIR      91  17   6 W3        30.02F
SEMINOLE       SUNNY     85  31  14 NE13      30.09S
SNYDER         SUNNY     84  40  21 NE23G30   30.04R
WINK           SUNNY     91  25   9 N13G22    30.00F
$$
...OTHER STATIONS IN TEXAS...

CITY           SKY/WX    TMP DP  RH WIND       PRES   REMARKS
ABILENE        SUNNY     90  40  17 N15       29.95S
AMARILLO       MOSUNNY   74  21  13 N22       30.17F
AUSTIN         SUNNY     81  56  42 S21G26    30.00F
BROWNSVILLE    SUNNY     78  63  59 SE28G36   30.07F
CORPUS CHRISTI SUNNY     78  65  63 SE28G36   30.05F
DALLAS FTW     MOSUNNY   82  58  43 S22G30    29.92F
DEL RIO        SUNNY     87  55  33 SE14      29.95F
EL PASO        PTSUNNY   87   7   5 W8        30.09F
HOUSTON INT    MOSUNNY   80  59  48 S12G20    30.09F
LUBBOCK        MOSUNNY   81  30  15 NE23G33   30.10R
SAN ANGELO     SUNNY     92  40  16 SW12      29.94F
SAN ANTONIO    SUNNY     82  57  42 SE21G26   30.02F
WACO           SUNNY     81  54  39 S25G31    29.96F
WICHITA FALLS  NOT AVBL
$$
...OTHER LOCATIONS IN NEW MEXICO...

CITY           SKY/WX    TMP DP  RH WIND       PRES   REMARKS
ALAMAGORDO     PTSUNNY   82   7   5 NW6       30.11F
ALBUQUERQUE    PTSUNNY   77  18  11 CALM      30.15F
CANNON AFB     NOT AVBL
CLOVIS         SUNNY     73  30  20 NE20G26   30.18S
HOLLOMAN AFB   NOT AVBL
ROSWELL        SUNNY     86  21   9 E13       30.09S
RUIDOSO        CLOUDY    68  18  14 SE16G23   30.28F
SANTA FE       MOSUNNY   72  11   9 SE6       30.19F
TRUTH OR CONSE CLOUDY    81  10   7 S8        30.11F
TUCUMCARI      SUNNY     74  23  15 E16G29    30.18F
$$

USA.gov is the U.S. government's official web portal to all federal, state and local government web resources and services.